DM5RC Weather Reports


Display with metric or nautical units.
time (UTC)temp
F
wind
direction
speed
MPH
gust
MPH
rain 1hr
in
rain 24hr
in
rain mn
in
humidity
%
barometer
mb
20260506200837 53 15 5.0 11.0 0.00 3.03 0.59 89 1006.8
20260506200315 53 65 5.0 11.0 0.00 3.03 0.59 89 1006.7
20260506195835 53 50 4.0 11.0 0.00 3.03 0.59 89 1006.5
20260506195312 53 49 5.0 10.0 0.00 3.03 0.59 89 1006.4
20260506194815 53 53 5.0 10.0 0.00 3.03 0.59 88 1006.5
20260506194337 53 51 6.0 13.0 0.00 3.03 0.59 88 1006.3
20260506193818 53 34 5.0 13.0 0.00 3.03 0.59 88 1006.2
20260506193319 54 74 6.0 11.0 0.00 3.03 0.59 87 1006.2
20260506192822 54 32 5.0 11.0 0.00 3.03 0.59 88 1006.1
20260506192325 54 51 4.0 12.0 0.00 3.03 0.59 88 1006.1
20260506191828 54 47 7.0 12.0 0.00 3.03 0.59 87 1006.1
20260506191329 54 18 5.0 10.0 0.00 3.03 0.59 88 1006.0
20260506190832 54 17 4.0 11.0 0.00 3.03 0.59 87 1006.0
20260506190331 54 47 6.0 11.0 0.00 3.03 0.59 87 1005.9
20260506185833 55 342 5.0 11.0 0.00 3.03 0.59 87 1005.9
20260506185351 55 68 3.0 11.0 0.00 3.03 0.59 87 1005.9
20260506184852 55 61 4.0 12.0 0.00 3.03 0.59 87 1005.8
20260506184313 55 16 7.0 12.0 0.00 3.03 0.59 87 1005.9
20260506183814 55 66 7.0 11.0 0.00 3.03 0.59 87 1005.8
20260506183317 55 50 5.0 11.0 0.00 3.03 0.59 87 1005.9
20260506182905 55 63 6.0 14.0 0.00 3.03 0.59 87 1005.8
20260506182323 55 78 9.0 14.0 0.00 3.03 0.59 87 1005.8
20260506181847 56 50 4.0 9.0 0.00 3.03 0.59 87 1005.8
20260506181331 56 44 4.0 11.0 0.00 3.03 0.59 86 1005.7
20260506180835 56 28 5.0 11.0 0.00 3.03 0.59 86 1005.7
20260506180316 56 22 5.0 9.0 0.00 3.03 0.59 86 1005.6
20260506175820 56 36 4.0 9.0 0.00 3.03 0.59 86 1005.6
20260506175322 56 22 4.0 13.0 0.00 3.03 0.59 86 1005.6
20260506174823 56 41 4.0 12.0 0.00 3.03 0.59 85 1005.5
20260506174325 57 34 6.0 12.0 0.00 3.03 0.59 85 1005.5
20260506173825 57 53 7.0 13.0 0.00 3.03 0.59 85 1005.5
20260506173325 57 26 4.0 12.0 0.00 3.03 0.59 85 1005.4
20260506172825 57 338 5.0 12.0 0.00 3.03 0.59 84 1005.3
20260506172327 57 35 5.0 11.0 0.00 3.03 0.59 83 1005.4
20260506171829 58 29 6.0 11.0 0.00 3.03 0.59 83 1005.3
20260506171331 58 17 6.0 12.0 0.00 3.03 0.59 83 1005.2
20260506170815 58 27 6.0 12.0 0.00 3.03 0.59 82 1005.1
20260506170319 58 45 5.0 11.0 0.00 3.03 0.59 82 1005.0
20260506165819 59 31 5.0 11.0 0.00 3.03 0.59 83 1004.9
20260506165324 59 56 4.0 9.0 0.00 3.03 0.59 83 1005.0
20260506164828 59 44 6.0 12.0 0.00 3.03 0.59 83 1005.0
20260506164331 59 49 6.0 13.0 0.00 3.03 0.59 83 1005.0
20260506163830 59 30 7.0 13.0 0.00 3.03 0.59 81 1005.0
20260506163330 60 40 6.0 12.0 0.00 3.03 0.59 81 1005.0
20260506162830 60 25 5.0 12.0 0.00 3.03 0.59 81 1005.0
20260506162331 60 21 5.0 9.0 0.00 3.03 0.59 80 1005.2
20260506161830 60 11 5.0 8.0 0.00 3.03 0.59 80 1005.2
20260506161330 60 28 5.0 9.0 0.00 3.03 0.59 80 1005.2
20260506160831 60 48 3.0 9.0 0.00 3.03 0.59 80 1005.2
20260506160313 60 28 4.0 11.0 0.00 3.03 0.59 80 1005.2
20260506155835 60 70 6.0 12.0 0.00 3.03 0.59 80 1005.1
20260506155316 60 35 5.0 13.0 0.00 3.03 0.59 80 1005.2
20260506154832 60 20 8.0 13.0 0.00 3.03 0.59 79 1005.2
20260506154314 61 3 7.0 13.0 0.00 3.03 0.59 79 1005.3
20260506153816 61 31 5.0 11.0 0.00 3.03 0.59 79 1005.4
20260506153319 62 49 6.0 11.0 0.00 3.03 0.59 80 1005.3
20260506152821 61 19 6.0 11.0 0.00 3.03 0.59 80 1005.4
20260506152324 61 48 6.0 12.0 0.00 3.03 0.59 80 1005.3
20260506151845 60 68 6.0 12.0 0.00 3.03 0.59 81 1005.3
20260506151347 61 55 7.0 11.0 0.00 3.03 0.59 80 1005.3
20260506150849 61 23 5.0 11.0 0.00 3.03 0.59 81 1005.2
20260506150332 61 43 6.0 13.0 0.00 3.03 0.59 80 1005.2
20260506145816 61 99 5.0 14.0 0.00 3.03 0.59 80 1005.2
20260506145318 62 357 6.0 14.0 0.00 3.03 0.59 79 1005.2
20260506144820 61 5 4.0 14.0 0.00 3.03 0.59 80 1005.2
20260506144341 62 341 7.0 14.0 0.00 3.03 0.59 79 1005.1
20260506143817 62 18 8.0 13.0 0.00 3.03 0.59 78 1005.1
20260506142818 62 13 5.0 13.0 0.00 3.03 0.59 79 1005.0
20260506142315 62 18 6.0 13.0 0.00 3.03 0.59 79 1005.1
20260506141815 63 19 4.0 10.0 0.00 3.03 0.59 78 1005.1
20260506141316 63 360 5.0 11.0 0.00 3.03 0.59 77 1005.3
20260506140817 63 53 5.0 11.0 0.00 3.03 0.59 77 1005.2
20260506140317 63 17 1.0 13.0 0.00 3.03 0.59 79 1005.3
20260506135836 63 19 9.0 13.0 0.00 3.03 0.59 77 1005.2
20260506135316 63 357 4.0 11.0 0.00 3.03 0.59 78 1005.2
20260506134819 62 296 4.0 11.0 0.00 3.03 0.59 78 1005.2
20260506134321 62 23 7.0 11.0 0.00 3.03 0.59 77 1005.3
20260506133821 62 285 4.0 11.0 0.00 3.03 0.59 77 1005.3
20260506133321 63 342 3.0 11.0 0.00 3.03 0.59 77 1005.3
20260506132821 63 19 5.0 10.0 0.00 3.03 0.59 76 1005.2
20260506132322 63 335 5.0 8.0 0.00 3.03 0.59 75 1005.2
20260506131824 64 9 3.0 7.0 0.00 3.03 0.59 77 1005.1
20260506131346 64 296 2.0 10.0 0.00 3.03 0.59 77 1005.2
20260506130847 64 341 5.0 12.0 0.00 3.03 0.59 76 1005.1
20260506130329 64 348 6.0 15.0 0.00 3.03 0.59 77 1005.0
20260506125831 65 12 6.0 15.0 0.00 3.03 0.59 74 1005.1
20260506125313 64 12 6.0 15.0 0.00 3.03 0.59 75 1005.2
20260506124813 64 319 9.0 15.0 0.00 3.03 0.59 76 1005.0
20260506124336 64 345 4.0 13.0 0.00 3.03 0.59 77 1005.0
20260506123817 64 2 6.0 14.0 0.00 3.03 0.59 76 1005.0
20260506123320 64 288 5.0 14.0 0.00 3.03 0.59 77 1004.9
20260506122823 64 334 4.0 9.0 0.00 3.03 0.59 77 1004.9
20260506122328 63 272 4.0 9.0 0.00 3.03 0.59 77 1005.0
20260506121831 63 284 4.0 9.0 0.00 3.03 0.59 78 1004.9
20260506121312 63 255 4.0 10.0 0.00 3.03 0.59 77 1005.0
20260506120815 63 276 5.0 11.0 0.00 3.03 0.59 78 1005.0
20260506120319 63 291 5.0 11.0 0.00 3.03 0.59 78 1004.9
20260506115820 62 255 9.0 11.0 0.00 3.03 0.59 77 1004.9
20260506115321 63 347 4.0 11.0 0.00 3.03 0.59 78 1004.9
20260506114822 62 319 5.0 14.0 0.00 3.03 0.59 78 1004.9
20260506114323 62 310 5.0 14.0 0.00 3.03 0.59 79 1005.0
20260506113824 62 273 5.0 17.0 0.00 3.03 0.59 79 1004.9
20260506113344 62 16 8.0 17.0 0.00 3.03 0.59 78 1004.9
20260506112824 63 4 7.0 17.0 0.00 3.03 0.59 78 1004.9
20260506112327 63 281 5.0 17.0 0.00 3.03 0.59 79 1004.8
20260506111832 63 345 9.0 15.0 0.00 3.03 0.59 78 1004.7
20260506111315 63 273 6.0 15.0 0.00 3.03 0.59 77 1004.7
20260506110820 63 286 8.0 15.0 0.00 3.03 0.59 78 1004.6
20260506110321 64 342 7.0 13.0 0.00 3.03 0.59 78 1004.6
20260506105842 64 279 5.0 14.0 0.00 3.03 0.59 78 1004.5
20260506105321 63 257 6.0 15.0 0.00 3.03 0.59 78 1004.5
20260506104823 63 279 6.0 13.0 0.00 3.03 0.59 78 1004.4
20260506104327 63 267 6.0 13.0 0.00 3.03 0.59 79 1004.4
20260506103831 63 322 5.0 16.0 0.00 3.03 0.59 79 1004.5
20260506103314 62 250 7.0 16.0 0.00 3.03 0.59 81 1004.4
20260506102817 62 295 5.0 15.0 0.00 3.03 0.59 81 1004.5
20260506102319 63 283 8.0 15.0 0.00 3.03 0.59 80 1004.3
20260506101821 63 19 4.0 12.0 0.00 3.03 0.59 83 1004.3
20260506101323 62 254 5.0 11.0 0.00 3.03 0.59 83 1004.3
20260506100823 61 330 4.0 20.0 0.00 3.03 0.59 84 1004.2
20260506100323 61 272 10.0 20.0 0.00 3.03 0.59 82 1004.2
20260506095825 62 312 6.0 17.0 0.00 3.03 0.59 80 1004.1
20260506095328 63 300 10.0 17.0 0.00 3.03 0.59 79 1004.0
20260506094831 63 292 9.0 17.0 0.00 3.03 0.59 80 1003.9
20260506094327 62 309 8.0 17.0 0.00 3.03 0.59 81 1003.7
20260506093830 62 275 7.0 18.0 0.00 3.03 0.59 82 1003.7
20260506093314 61 276 7.0 18.0 0.00 3.03 0.59 84 1003.6
20260506092816 61 280 9.0 18.0 0.00 3.03 0.59 83 1003.5
20260506092315 61 271 7.0 22.0 0.00 3.03 0.59 83 1003.6
20260506091816 61 277 8.0 22.0 0.00 3.03 0.59 82 1003.4
20260506090819 62 307 9.0 20.0 0.00 3.03 0.59 83 1003.1
20260506090322 62 299 5.0 20.0 0.00 3.03 0.59 83 1003.1
20260506085825 62 241 11.0 20.0 0.00 3.15 0.59 82 1003.1
20260506085346 61 284 7.0 20.0 0.00 3.15 0.59 85 1003.0
20260506084827 61 259 10.0 20.0 0.00 3.15 0.59 85 1003.0
20260506084329 60 267 6.0 20.0 0.00 3.15 0.59 87 1002.8
20260506083831 61 266 8.0 18.0 0.00 3.15 0.59 87 1002.8
20260506083332 60 255 6.0 18.0 0.00 3.15 0.59 90 1002.8
20260506082812 59 236 5.0 10.0 0.00 3.15 0.59 90 1003.0
20260506082313 59 271 5.0 9.0 0.00 3.15 0.59 91 1002.9
20260506081813 59 262 4.0 14.0 0.00 3.15 0.59 92 1002.9
20260506081333 58 257 8.0 14.0 0.00 3.15 0.59 92 1002.9
20260506080813 58 275 2.0 8.0 0.00 3.15 0.59 92 1002.8
20260506080333 58 249 4.0 9.0 0.00 3.15 0.59 92 1002.9
20260506073329 57 224 4.0 7.0 0.00 3.23 0.59 94 1002.8
20260506072852 57 240 3.0 7.0 0.00 3.23 0.59 94 1002.8
20260506072333 57 271 3.0 6.0 0.00 3.23 0.59 95 1002.8
20260506071815 57 219 2.0 7.0 0.00 3.23 0.59 95 1002.8
20260506071338 57 217 3.0 7.0 0.00 3.23 0.59 95 1002.9
20260506070820 57 248 3.0 7.0 0.00 3.23 0.59 95 1002.9
20260506070323 57 244 3.0 7.0 0.00 3.23 0.59 95 1002.9
20260506062318 57 229 1.0 4.0 0.00 3.23 0.59 96 1002.8
20260506061821 57 188 1.0 4.0 0.00 3.23 0.59 97 1002.8
20260506061323 57 201 1.0 5.0 0.00 3.23 0.59 97 1002.9
20260506060826 57 148 2.0 5.0 0.00 3.23 0.59 97 1002.8
20260506060328 56 142 3.0 6.0 0.00 3.23 0.59 97 1002.9
20260506051316 55 243 1.0 3.0 0.04 3.23 0.59 97 1003.1
20260506050821 55 230 1.0 3.0 0.04 3.23 0.59 97 1003.2
20260506050352 55 157 1.0 5.0 0.04 3.23 0.59 97 1003.2
20260506044837 54 107 3.0 6.0 0.04 3.23 0.59 96 1003.2
20260506044316 54 108 2.0 6.0 0.04 3.23 0.59 97 1003.2
20260506043816 54 46 3.0 6.0 0.04 3.23 0.59 97 1003.3
20260506043316 54 70 0.0 5.0 0.04 3.23 0.59 96 1003.3
20260506042817 54 70 0.0 6.0 0.04 3.23 0.59 96 1003.3
20260506042317 54 71 2.0 7.0 0.00 3.19 0.58 96 1003.3
20260506041838 54 134 2.0 8.0 0.00 3.19 0.58 96 1003.3
20260506041317 54 68 3.0 8.0 0.00 3.19 0.58 96 1003.3
20260506040817 55 105 2.0 6.0 0.00 3.19 0.58 96 1003.4
20260506040318 54 129 4.0 6.0 0.00 3.19 0.58 96 1003.3
20260506035819 55 118 1.0 4.0 0.00 3.19 0.58 96 1003.3
20260506035320 55 110 1.0 6.0 0.00 3.19 0.58 97 1003.4
20260506034823 55 119 2.0 6.0 0.00 3.19 0.58 97 1003.5
20260506034325 54 124 1.0 6.0 0.00 3.19 0.58 97 1003.5
20260506033827 54 123 2.0 6.0 0.00 3.19 0.58 96 1003.5
20260506033329 54 148 0.0 5.0 0.00 3.19 0.58 96 1003.6
20260506032852 54 152 1.0 5.0 0.00 3.19 0.58 96 1003.6
20260506032353 54 126 3.0 5.0 0.00 3.19 0.58 96 1003.6
20260506031814 54 115 1.0 4.0 0.00 3.19 0.58 96 1003.7
20260506031316 54 137 2.0 4.0 0.00 3.19 0.58 96 1003.7
20260506030819 54 203 1.0 2.0 0.00 3.19 0.58 96 1003.8
20260506030322 54 206 1.0 3.0 0.00 3.19 0.58 96 1003.8
20260506025820 54 246 1.0 3.0 0.00 3.19 0.58 96 1003.7
20260506025322 54 229 1.0 3.0 0.00 3.19 0.58 96 1003.7
20260506024844 54 141 1.0 2.0 0.00 3.19 0.58 96 1003.7
20260506024346 54 127 1.0 5.0 0.00 3.19 0.58 96 1003.5
20260506023827 54 123 2.0 7.0 0.00 3.19 0.58 96 1003.6
20260506023312 54 111 3.0 10.0 0.00 3.19 0.58 96 1003.5
20260506022836 54 82 5.0 10.0 0.00 3.19 0.58 96 1003.5
20260506022318 54 76 4.0 12.0 0.04 3.19 0.58 96 1003.6
20260506021821 54 53 6.0 12.0 0.04 3.19 0.58 96 1003.6
20260506021322 54 45 6.0 12.0 0.04 3.19 0.58 96 1003.6
20260506020824 54 68 5.0 12.0 0.04 3.19 0.58 96 1003.6
20260506020346 54 139 5.0 13.0 0.08 3.19 0.58 96 1003.6
20260506015909 54 96 6.0 13.0 0.08 3.19 0.58 96 1003.6
20260506015347 55 68 6.0 13.0 0.08 3.19 0.58 96 1003.6
20260506014828 55 52 8.0 15.0 0.12 3.19 0.58 96 1003.6
20260506014328 55 34 6.0 15.0 0.12 3.19 0.58 96 1003.5
20260506013829 54 43 10.0 15.0 0.16 3.19 0.58 96 1003.6
20260506013330 55 46 9.0 16.0 0.20 3.19 0.58 96 1003.6
20260506012830 54 35 8.0 16.0 0.28 3.19 0.58 96 1003.6
20260506012331 55 53 9.0 17.0 0.31 3.15 0.57 96 1003.6
20260506011832 55 63 10.0 17.0 0.39 3.15 0.57 96 1003.8
20260506011313 55 65 8.0 14.0 0.47 3.15 0.57 96 1003.9
20260506010815 55 53 8.0 14.0 0.55 3.15 0.57 96 1003.9
20260506010318 55 75 7.0 14.0 0.63 3.11 0.57 96 1003.9
20260506005819 55 59 6.0 12.0 0.91 3.11 0.57 96 1003.9
20260506005318 55 37 6.0 11.0 1.02 3.11 0.57 96 1004.2
20260506004821 55 42 6.0 10.0 1.30 3.07 0.56 96 1004.5
20260506004314 56 67 4.0 9.0 1.69 3.07 0.56 96 1004.6
20260506003832 55 16 4.0 9.0 1.65 3.03 0.55 96 1004.8
20260506003332 56 359 3.0 8.0 1.57 2.95 0.54 96 1005.0
20260506002833 56 17 4.0 9.0 1.54 2.91 0.53 96 1005.0
20260506002332 56 32 5.0 9.0 1.46 2.83 0.51 96 1005.1
20260506001832 56 54 4.0 8.0 1.38 2.76 0.50 96 1005.3
20260506001314 55 25 3.0 5.0 1.30 2.68 0.48 96 1005.5
20260506000817 55 53 3.0 4.0 1.26 2.60 0.46 96 1005.7
20260506000322 55 17 3.0 4.0 1.14 2.48 0.44 96 1006.0
20260505235823 55 234 0.0 3.0 0.91 2.20 0.39 96 1006.4
20260505235325 55 219 1.0 7.0 0.75 2.05 0.35 96 1006.5
20260505234828 55 226 3.0 9.0 0.47 1.73 0.29 96 1006.5
20260505234350 55 270 4.0 9.0 0.16 1.38 0.22 96 1006.4
20260505233831 55 234 2.0 8.0 0.16 1.38 0.22 95 1006.1
20260505233312 55 65 4.0 9.0 0.16 1.38 0.22 95 1005.5
20260505232814 55 20 5.0 9.0 0.16 1.38 0.22 95 1005.3
20260505232335 55 23 4.0 9.0 0.20 1.38 0.22 95 1005.3
20260505231817 55 27 5.0 10.0 0.24 1.38 0.22 95 1005.3
20260505231319 56 13 3.0 10.0 0.75 1.38 0.22 95 1005.2
20260505230842 56 63 4.0 10.0 0.75 1.34 0.21 95 1005.1
20260505230322 56 36 4.0 12.0 0.79 1.34 0.21 95 1005.0
20260505225844 56 85 7.0 12.0 1.10 1.30 0.20 95 1004.9
20260505225323 56 25 4.0 7.0 1.06 1.26 0.20 95 1005.3
20260505224824 56 58 3.0 8.0 1.06 1.26 0.20 95 1005.6
20260505224327 56 51 4.0 8.0 1.02 1.22 0.19 94 1005.6
20260505223828 56 46 3.0 8.0 1.02 1.22 0.19 94 1005.5
20260505223350 56 32 4.0 8.0 1.02 1.22 0.19 94 1005.3
20260505222813 56 324 2.0 10.0 1.02 1.22 0.19 94 1005.2
20260505222315 56 11 5.0 12.0 0.98 1.18 0.18 93 1005.2
20260505221816 57 12 6.0 12.0 0.91 1.10 0.17 93 1005.5
20260505221318 57 59 4.0 6.0 0.43 0.63 0.07 92 1006.2
20260505220819 57 61 1.0 5.0 0.39 0.59 0.06 92 1006.3
20260505220339 57 41 2.0 5.0 0.35 0.55 0.06 91 1006.2
20260505215820 58 52 1.0 10.0 0.00 0.20 0.04 91 1006.2
20260505215342 57 49 4.0 10.0 0.00 0.20 0.04 91 1006.0
20260505214823 57 49 5.0 9.0 0.00 0.20 0.04 91 1006.3
20260505214325 57 67 4.0 8.0 0.00 0.20 0.04 91 1006.2
20260505213828 57 27 5.0 8.0 0.00 0.20 0.04 91 1006.2
20260505213331 58 49 4.0 8.0 0.00 0.20 0.04 91 1006.1
20260505212813 58 70 3.0 9.0 0.00 0.20 0.04 91 1005.9
20260505212317 58 65 4.0 10.0 0.00 0.20 0.04 90 1005.9
20260505211838 58 53 6.0 11.0 0.00 0.20 0.04 90 1006.0
20260505211340 58 42 5.0 12.0 0.00 0.20 0.04 90 1006.1
20260505210841 58 74 7.0 18.0 0.00 0.20 0.04 90 1006.1
20260505210321 58 60 10.0 18.0 0.00 0.20 0.04 89 1006.0
20260505205840 58 51 7.0 16.0 0.00 0.20 0.04 89 1006.0
20260505204821 59 69 7.0 16.0 0.00 0.20 0.04 89 1006.0
20260505204323 59 56 10.0 16.0 0.00 0.20 0.04 88 1005.9
20260505203321 59 49 7.0 12.0 0.00 0.20 0.04 88 1005.9
20260505202825 59 43 7.0 12.0 0.00 0.20 0.04 87 1005.9
20260505202327 59 57 6.0 10.0 0.00 0.20 0.04 87 1006.0
20260505201830 59 46 4.0 8.0 0.00 0.20 0.04 87 1006.0
20260505201332 60 31 4.0 9.0 0.00 0.20 0.04 87 1006.1